| time (UTC) | temp C | wind direction | speed KPH | gust KPH | rain 1hr cm | rain 24hr cm | rain mn cm | humidity % | barometer mb |
| 20260903202949 | 32 | 191 | 9.7 | 12.9 | 0.00 | 0.00 | 0.00 | 25 | 1014.5 |
| 20260903195738 | 32 | 168 | 9.7 | 11.3 | 0.00 | 0.00 | 0.00 | 26 | 1014.8 |
| 20260903195338 | 31 | 261 | 3.2 | 12.9 | 0.00 | 0.00 | 0.00 | 26 | 1014.8 |
| 20260903194936 | 31 | 103 | 1.6 | 16.1 | 0.00 | 0.00 | 0.00 | 25 | 1014.8 |
| 20260903194536 | 29 | 180 | 8.0 | 11.3 | 0.00 | 0.00 | 0.00 | 26 | 1014.9 |
| 20260903193732 | 30 | 128 | 16.1 | 16.1 | 0.00 | 0.00 | 0.00 | 26 | 1014.9 |
| 20260903192929 | 31 | 184 | 4.8 | 8.0 | 0.00 | 0.00 | 0.00 | 26 | 1015.0 |
| 20260903192528 | 30 | 162 | 1.6 | 14.5 | 0.00 | 0.00 | 0.00 | 26 | 1015.1 |
| 20260903191726 | 30 | 141 | 9.7 | 14.5 | 0.00 | 0.00 | 0.00 | 26 | 1015.2 |
| 20260903191325 | 30 | 180 | 6.4 | 11.3 | 0.00 | 0.00 | 0.00 | 27 | 1015.3 |
| 20260903190922 | 30 | 162 | 3.2 | 14.5 | 0.00 | 0.00 | 0.00 | 27 | 1015.4 |
| 20260903185719 | 29 | 126 | 3.2 | 14.5 | 0.00 | 0.00 | 0.00 | 27 | 1015.5 |
| 20260903185318 | 30 | 187 | 4.8 | 12.9 | 0.00 | 0.00 | 0.00 | 27 | 1015.6 |
| 20260903184919 | 30 | 195 | 11.3 | 11.3 | 0.00 | 0.00 | 0.00 | 28 | 1015.7 |
| 20260903184516 | 29 | 184 | 6.4 | 9.7 | 0.00 | 0.00 | 0.00 | 28 | 1015.6 |
| 20260903184114 | 28 | 7 | 0.0 | 11.3 | 0.00 | 0.00 | 0.00 | 28 | 1015.6 |
| 20260903183714 | 27 | 139 | 12.9 | 19.3 | 0.00 | 0.00 | 0.00 | 1015.7 | |
| 20260903183312 | 27 | 139 | 11.3 | 16.1 | 0.00 | 0.00 | 0.00 | 28 | 1015.8 |
| 20260903182910 | 27 | 151 | 12.9 | 17.7 | 0.00 | 0.00 | 0.00 | 28 | 1015.9 |
| 20260903182107 | 28 | 137 | 17.7 | 17.7 | 0.00 | 0.00 | 0.00 | 29 | 1016.0 |
| 20260903181709 | 28 | 130 | 11.3 | 17.7 | 0.00 | 0.00 | 0.00 | 29 | 1016.1 |
| 20260903181309 | 28 | 130 | 9.7 | 12.9 | 0.00 | 0.00 | 0.00 | 29 | 1016.0 |
| 20260903180101 | 27 | 130 | 8.0 | 11.3 | 0.00 | 0.00 | 0.00 | 30 | 1016.0 |
| 20260903175659 | 27 | 132 | 6.4 | 12.9 | 0.00 | 0.00 | 0.00 | 30 | 1016.1 |
| 20260903175258 | 28 | 114 | 12.9 | 14.5 | 0.00 | 0.00 | 0.00 | 31 | 1016.1 |
| 20260903174857 | 29 | 186 | 3.2 | 11.3 | 0.00 | 0.00 | 0.00 | 31 | 1016.1 |
| 20260903174456 | 29 | 195 | 4.8 | 11.3 | 0.00 | 0.00 | 0.00 | 31 | 1016.1 |
| 20260903174056 | 28 | 221 | 4.8 | 11.3 | 0.00 | 0.00 | 0.00 | 32 | 1016.1 |
| 20260903173656 | 28 | 135 | 4.8 | 12.9 | 0.00 | 0.00 | 0.00 | 32 | 1016.2 |
| 20260903173254 | 27 | 227 | 4.8 | 6.4 | 0.00 | 0.00 | 0.00 | 33 | 1016.2 |
| 20260903172450 | 27 | 108 | 3.2 | 11.3 | 0.00 | 0.00 | 0.00 | 33 | 1016.2 |
| 20260903172048 | 27 | 182 | 11.3 | 11.3 | 0.00 | 0.00 | 0.00 | 34 | 1016.2 |
| 20260903170844 | 25 | 139 | 9.7 | 14.5 | 0.00 | 0.00 | 0.00 | 35 | 1016.3 |
| 20260903170443 | 25 | 137 | 14.5 | 16.1 | 0.00 | 0.00 | 0.00 | 36 | 1016.3 |
| 20260903170042 | 25 | 130 | 8.0 | 17.7 | 0.00 | 0.00 | 0.00 | 36 | 1016.2 |
| 20260903165640 | 26 | 182 | 6.4 | 11.3 | 0.00 | 0.00 | 0.00 | 37 | 1016.2 |
| 20260903165243 | 25 | 140 | 8.0 | 9.7 | 0.00 | 0.00 | 0.00 | 37 | 1016.2 |
| 20260903164838 | 25 | 299 | 1.6 | 6.4 | 0.00 | 0.00 | 0.00 | 37 | 1016.1 |
| 20260903164035 | 24 | 225 | 4.8 | 11.3 | 0.00 | 0.00 | 0.00 | 38 | 1016.1 |
| 20260903163233 | 24 | 171 | 3.2 | 12.9 | 0.00 | 0.00 | 0.00 | 38 | 1016.1 |
| 20260903162832 | 24 | 90 | 11.3 | 11.3 | 0.00 | 0.00 | 0.00 | 39 | 1016.1 |
| 20260903162430 | 24 | 216 | 3.2 | 4.8 | 0.00 | 0.00 | 0.00 | 40 | 1016.2 |
| 20260903162033 | 23 | 146 | 8.0 | 12.9 | 0.00 | 0.00 | 0.00 | 39 | 1016.2 |
| 20260903161226 | 24 | 155 | 1.6 | 4.8 | 0.00 | 0.00 | 0.00 | 40 | 1016.2 |
| 20260903160825 | 23 | 255 | 1.6 | 8.0 | 0.00 | 0.00 | 0.00 | 40 | 1016.2 |
| 20260903160424 | 23 | 135 | 3.2 | 4.8 | 0.00 | 0.00 | 0.00 | 41 | 1016.1 |
| 20260903160023 | 23 | 150 | 3.2 | 9.7 | 0.00 | 0.00 | 0.00 | 41 | 1016.1 |
| 20260903155220 | 22 | 60 | 3.2 | 8.0 | 0.00 | 0.00 | 0.00 | 41 | 1016.1 |
| 20260903154818 | 22 | 141 | 8.0 | 14.5 | 0.00 | 0.00 | 0.00 | 41 | 1016.2 |
| 20260903154016 | 22 | 94 | 3.2 | 8.0 | 0.00 | 0.00 | 0.00 | 42 | 1016.2 |
| 20260903153615 | 23 | 99 | 6.4 | 9.7 | 0.00 | 0.00 | 0.00 | 42 | 1016.3 |
| 20260903153213 | 23 | 157 | 0.0 | 4.8 | 0.00 | 0.00 | 0.00 | 43 | 1016.2 |
| 20260903152812 | 22 | 35 | 0.0 | 1.6 | 0.00 | 0.00 | 0.00 | 43 | 1016.2 |
| 20260903152411 | 22 | 135 | 1.6 | 4.8 | 0.00 | 0.00 | 0.00 | 43 | 1016.1 |
| 20260903152011 | 21 | 135 | 6.4 | 8.0 | 0.00 | 0.00 | 0.00 | 43 | 1016.2 |
| 20260903151609 | 21 | 67 | 3.2 | 8.0 | 0.00 | 0.00 | 0.00 | 43 | 1016.2 |
| 20260903150808 | 20 | 132 | 6.4 | 8.0 | 0.00 | 0.00 | 0.00 | 44 | 1016.1 |
| 20260903150404 | 20 | 162 | 3.2 | 4.8 | 0.00 | 0.00 | 0.00 | 44 | 1016.2 |
| 20260903145202 | 19 | 220 | 1.6 | 8.0 | 0.00 | 0.00 | 0.00 | ||
| 20260903143956 | 18 | 139 | 1.6 | 6.4 | 0.00 | 0.00 | 0.00 | 48 | 1016.0 |
| 20260903142352 | 18 | 137 | 0.0 | 6.4 | 0.00 | 0.00 | 0.00 | 46 | 1015.9 |
| 20260903141950 | 18 | 83 | 4.8 | 6.4 | 0.00 | 0.00 | 0.00 | 45 | 1015.8 |
| 20260903141148 | 17 | 85 | 0.0 | 6.4 | 0.00 | 0.00 | 0.00 | 46 | 1015.8 |
| 20260903140746 | 17 | 135 | 6.4 | 6.4 | 0.00 | 0.00 | 0.00 | 46 | 1015.8 |
| 20260903135141 | 17 | 58 | 1.6 | 1.6 | 0.00 | 0.00 | 0.00 | 45 | 1015.7 |
| 20260903134342 | 16 | 85 | 0.0 | 1.6 | 0.00 | 0.00 | 0.00 | 45 | 1015.5 |
| 20260903133939 | 16 | 83 | 1.6 | 0.0 | 0.00 | 0.00 | 0.00 | 45 | 1015.5 |
| 20260903133135 | 16 | 299 | 0.0 | 0.0 | 0.00 | 0.00 | 0.00 | 45 | 1015.5 |
| 20260903132733 | 16 | 81 | 0.0 | 0.0 | 0.00 | 0.00 | 0.00 | 45 | 1015.5 |
| 20260903132332 | 16 | 83 | 0.0 | 0.0 | 0.00 | 0.00 | 0.00 | 46 | 1015.7 |
| 20260903131932 | 16 | 85 | 0.0 | 1.6 | 0.00 | 0.00 | 0.00 | 46 | 1015.4 |
| 20260903130727 | 16 | 36 | 0.0 | 1.6 | 0.00 | 0.00 | 0.00 | 46 | 1015.6 |
| 20260903130326 | 16 | 35 | 0.0 | 0.0 | 0.00 | 0.00 | 0.00 | 46 | 1015.6 |
| 20260903125926 | 16 | 274 | 0.0 | 0.0 | 0.00 | 0.00 | 0.00 | 46 | 1015.6 |
| 20260903125523 | 16 | 288 | 0.0 | 1.6 | 0.00 | 0.00 | 0.00 | 46 | 1015.6 |
| 20260903125123 | 16 | 265 | 0.0 | 1.6 | 0.00 | 0.00 | 0.00 | 47 | 1015.6 |
| 20260903124721 | 15 | 274 | 0.0 | 1.6 | 0.00 | 0.00 | 0.00 | 46 | 1015.7 |
| 20260903124319 | 15 | 328 | 0.0 | 0.0 | 0.00 | 0.00 | 0.00 | 46 | 1015.7 |
| 20260903123918 | 15 | 337 | 0.0 | 1.6 | 0.00 | 0.00 | 0.00 | 46 | 1015.6 |
| 20260903122715 | 14 | 42 | 0.0 | 1.6 | 0.00 | 0.00 | 0.00 | 46 | 1015.7 |
| 20260903121912 | 14 | 235 | 0.0 | 0.0 | 0.00 | 0.00 | 0.00 | 46 | 1015.6 |
| 20260903121510 | 14 | 288 | 0.0 | 0.0 | 0.00 | 0.00 | 0.00 | 46 | 1015.6 |
| 20260903121109 | 14 | 279 | 0.0 | 0.0 | 0.00 | 0.00 | 0.00 | 46 | 1015.6 |
| 20260903120307 | 14 | 292 | 0.0 | 0.0 | 0.00 | 0.00 | 0.00 | 46 | 1015.6 |
| 20260903115905 | 14 | 274 | 0.0 | 0.0 | 0.00 | 0.00 | 0.00 | 46 | 1015.7 |
| 20260903115103 | 14 | 274 | 0.0 | 0.0 | 0.00 | 0.00 | 0.00 | 46 | 1015.7 |
| 20260903114254 | 14 | 330 | 0.0 | 0.0 | 0.00 | 0.00 | 0.00 | 46 | 1015.7 |
| 20260903113452 | 14 | 292 | 0.0 | 0.0 | 0.00 | 0.00 | 0.00 | 46 | 1015.7 |
| 20260903113053 | 14 | 279 | 0.0 | 0.0 | 0.00 | 0.00 | 0.00 | 46 | 1015.7 |
| 20260903112649 | 14 | 310 | 0.0 | 0.0 | 0.00 | 0.00 | 0.00 | 46 | 1015.7 |
| 20260903112248 | 14 | 283 | 0.0 | 0.0 | 0.00 | 0.00 | 0.00 | 46 | 1015.7 |
| 20260903111847 | 14 | 297 | 0.0 | 0.0 | 0.00 | 0.00 | 0.00 | 46 | 1015.7 |
| 20260903111446 | 14 | 279 | 0.0 | 0.0 | 0.00 | 0.00 | 0.00 | 46 | 1015.7 |
| 20260903110238 | 14 | 231 | 0.0 | 1.6 | 0.00 | 0.00 | 0.00 | 46 | 1015.7 |
| 20260903105836 | 14 | 274 | 0.0 | 1.6 | 0.00 | 0.00 | 0.00 | 45 | 1015.7 |
| 20260903105834 | 14 | 274 | 0.0 | 1.6 | 0.00 | 0.00 | 0.00 | 45 | 1015.7 |
| 20260903105032 | 14 | 279 | 0.0 | 0.0 | 0.00 | 0.00 | 0.00 | 45 | 1015.8 |
| 20260903104631 | 14 | 290 | 0.0 | 0.0 | 0.00 | 0.00 | 0.00 | 45 | 1015.8 |
| 20260903104230 | 36 | 231 | 0.0 | 0.0 | 0.00 | 0.00 | 0.00 | 45 | 1015.9 |
| 20260903104128 | 14 | 202 | 0.0 | 0.0 | 0.00 | 0.00 | 0.00 | 45 | 1015.8 |
| 20260903103828 | 14 | 202 | 0.0 | 0.0 | 0.00 | 0.00 | 0.00 | 45 | 1015.8 |
| 20260903103426 | 14 | 189 | 0.0 | 0.0 | 0.00 | 0.00 | 0.00 | 45 | 1015.8 |
| 20260903103025 | 14 | 184 | 0.0 | 0.0 | 0.00 | 0.00 | 0.00 | 45 | 1015.9 |
| 20260903102624 | 14 | 230 | 0.0 | 0.0 | 0.00 | 0.00 | 0.00 | 45 | 1015.8 |
| 20260903102223 | 14 | 234 | 0.0 | 0.0 | 0.00 | 0.00 | 0.00 | 45 | 1015.8 |
| 20260903101821 | 14 | 230 | 0.0 | 1.6 | 0.00 | 0.00 | 0.00 | 45 | 1015.9 |
| 20260903101019 | 14 | 274 | 1.6 | 1.6 | 0.00 | 0.00 | 0.00 | 45 | 1015.8 |
| 20260903100620 | 14 | 283 | 0.0 | 0.0 | 0.00 | 0.00 | 0.00 | 45 | 1016.0 |
| 20260903100216 | 14 | 227 | 0.0 | 0.0 | 0.00 | 0.00 | 0.00 | 44 | 1015.9 |
| 20260903095815 | 14 | 288 | 0.0 | 0.0 | 0.00 | 0.00 | 0.00 | 44 | 1015.9 |
| 20260903095413 | 14 | 252 | 0.0 | 0.0 | 0.00 | 0.00 | 0.00 | 44 | 1015.9 |
| 20260903094613 | 14 | 283 | 0.0 | 0.0 | 0.00 | 0.00 | 0.00 | 44 | 1015.9 |
| 20260903093407 | 14 | 283 | 0.0 | 1.6 | 0.00 | 0.00 | 0.00 | 44 | 1016.0 |
| 20260903092605 | 15 | 242 | 0.0 | 1.6 | 0.00 | 0.00 | 0.00 | 44 | 1016.1 |
| 20260903092205 | 15 | 283 | 0.0 | 0.0 | 0.00 | 0.00 | 0.00 | 44 | 1016.1 |
| 20260903091803 | 15 | 288 | 0.0 | 0.0 | 0.00 | 0.00 | 0.00 | 44 | 1016.2 |
| 20260903091000 | 15 | 279 | 0.0 | 0.0 | 0.00 | 0.00 | 0.00 | 43 | 1016.1 |
| 20260903090558 | 15 | 279 | 0.0 | 0.0 | 0.00 | 0.00 | 0.00 | 43 | 1016.2 |
| 20260903090157 | 15 | 308 | 0.0 | 0.0 | 0.00 | 0.00 | 0.00 | 43 | 1016.2 |
| 20260903085756 | 15 | 279 | 0.0 | 0.0 | 0.00 | 0.00 | 0.00 | 43 | 1016.2 |
| 20260903085355 | 15 | 288 | 0.0 | 0.0 | 0.00 | 0.00 | 0.00 | 43 | 1016.3 |
| 20260903084552 | 15 | 279 | 0.0 | 0.0 | 0.00 | 0.00 | 0.00 | 43 | 1016.3 |
| 20260903084150 | 15 | 279 | 0.0 | 0.0 | 0.00 | 0.00 | 0.00 | 43 | 1016.4 |
| 20260903083749 | 15 | 274 | 0.0 | 0.0 | 0.00 | 0.00 | 0.00 | 43 | 1016.5 |
| 20260903083348 | 15 | 274 | 0.0 | 0.0 | 0.00 | 0.00 | 0.00 | 43 | 1016.4 |
| 20260903082949 | 15 | 299 | 0.0 | 0.0 | 0.00 | 0.00 | 0.00 | 43 | 101.6 |
| 20260903082546 | 15 | 310 | 0.0 | 0.0 | 0.00 | 0.00 | 0.00 | 43 | 1016.5 |
| 20260903082144 | 15 | 279 | 1.6 | 1.6 | 0.00 | 0.00 | 0.00 | 42 | 1016.5 |
| 20260903080940 | 15 | 228 | 0.0 | 0.0 | 0.00 | 0.00 | 0.00 | 42 | 1016.5 |
| 20260903080539 | 15 | 236 | 0.0 | 0.0 | 0.00 | 0.00 | 0.00 | 42 | 1016.5 |
| 20260903080138 | 15 | 274 | 0.0 | 0.0 | 0.00 | 0.00 | 0.00 | 42 | 1016.5 |
| 20260903075335 | 15 | 288 | 0.0 | 0.0 | 0.00 | 0.00 | 0.00 | 42 | 1016.7 |
| 20260903074125 | 15 | 299 | 0.0 | 0.0 | 0.00 | 0.00 | 0.00 | 42 | 1016.5 |
| 20260903073724 | 15 | 299 | 0.0 | 0.0 | 0.00 | 0.00 | 0.00 | 41 | 1016.4 |
| 20260903073326 | 16 | 274 | 0.0 | 0.0 | 0.00 | 0.00 | 0.00 | 41 | 1016.5 |
| 20260903072921 | 16 | 279 | 0.0 | 0.0 | 0.00 | 0.00 | 0.00 | 41 | 1016.4 |
| 20260903072119 | 16 | 279 | 0.0 | 0.0 | 0.00 | 0.00 | 0.00 | 41 | 1016.5 |
| 20260903071718 | 16 | 279 | 0.0 | 0.0 | 0.00 | 0.00 | 0.00 | 41 | 1016.4 |
| 20260903071317 | 16 | 283 | 0.0 | 0.0 | 0.00 | 0.00 | 0.00 | 41 | 1016.4 |
| 20260903070915 | 16 | 283 | 0.0 | 0.0 | 0.00 | 0.00 | 0.00 | 41 | 1016.4 |
| 20260903070515 | 16 | 279 | 0.0 | 0.0 | 0.00 | 0.00 | 0.00 | 41 | 1016.4 |
| 20260903070115 | 16 | 270 | 0.0 | 0.0 | 0.00 | 0.00 | 0.00 | 41 | 1016.6 |
| 20260903070113 | 16 | 270 | 0.0 | 0.0 | 0.00 | 0.00 | 0.00 | 41 | 1016.6 |
| 20260903065711 | 16 | 230 | 0.0 | 0.0 | 0.00 | 0.00 | 0.00 | 41 | 1016.6 |
| 20260903065310 | 16 | 274 | 0.0 | 0.0 | 0.00 | 0.00 | 0.00 | 41 | 1016.4 |
| 20260903064909 | 16 | 342 | 0.0 | 0.0 | 0.00 | 0.00 | 0.00 | 40 | 1016.4 |
| 20260903064106 | 16 | 283 | 0.0 | 0.0 | 0.00 | 0.00 | 0.00 | 40 | 1016.4 |
| 20260903063706 | 16 | 288 | 0.0 | 0.0 | 0.00 | 0.00 | 0.00 | ||
| 20260903063704 | 16 | 288 | 0.0 | 0.0 | 0.00 | 0.00 | 0.00 | 40 | 1016.4 |
| 20260903063303 | 16 | 279 | 0.0 | 0.0 | 0.00 | 0.00 | 0.00 | 40 | 1016.4 |
| 20260903062903 | 16 | 274 | 0.0 | 0.0 | 0.00 | 0.00 | 0.00 | 40 | 1016.3 |
| 20260903062501 | 17 | 182 | 0.0 | 0.0 | 0.00 | 0.00 | 0.00 | 40 | 1016.3 |
| 20260903062100 | 17 | 235 | 0.0 | 0.0 | 0.00 | 0.00 | 0.00 | 40 | 1016.3 |
| 20260903061658 | 17 | 279 | 0.0 | 0.0 | 0.00 | 0.00 | 0.00 | 39 | 1016.3 |
| 20260903061257 | 17 | 306 | 0.0 | 0.0 | 0.00 | 0.00 | 0.00 | 39 | 1016.2 |
| 20260903060856 | 17 | 310 | 0.0 | 0.0 | 0.00 | 0.00 | 0.00 | 39 | 1016.1 |
| 20260903060456 | 17 | 306 | 0.0 | 0.0 | 0.00 | 0.00 | 0.00 | 39 | 1016.1 |
| 20260903060053 | 17 | 213 | 0.0 | 0.0 | 0.00 | 0.00 | 0.00 | 39 | 1016.1 |
| 20260903055653 | 17 | 299 | 0.0 | 0.0 | 0.00 | 0.00 | 0.00 | 39 | 1016.2 |
| 20260903055250 | 17 | 301 | 0.0 | 0.0 | 0.00 | 0.00 | 0.00 | 39 | 1016.1 |
| 20260903054849 | 17 | 310 | 0.0 | 0.0 | 0.00 | 0.00 | 0.00 | 39 | 1016.1 |
| 20260903054448 | 17 | 312 | 0.0 | 0.0 | 0.00 | 0.00 | 0.00 | 39 | 1016.2 |
| 20260903054047 | 17 | 301 | 0.0 | 0.0 | 0.00 | 0.00 | 0.00 | 38 | 1016.2 |
| 20260903053646 | 17 | 297 | 0.0 | 0.0 | 0.00 | 0.00 | 0.00 | 38 | 1016.1 |
| 20260903053244 | 17 | 306 | 0.0 | 0.0 | 0.00 | 0.00 | 0.00 | 38 | 1016.1 |
| 20260903052843 | 17 | 306 | 0.0 | 0.0 | 0.00 | 0.00 | 0.00 | 38 | 1016.1 |
| 20260903052441 | 17 | 306 | 0.0 | 0.0 | 0.00 | 0.00 | 0.00 | 38 | 1016.1 |
| 20260903052040 | 17 | 303 | 0.0 | 3.2 | 0.00 | 0.00 | 0.00 | 38 | 1016.2 |
| 20260903051640 | 18 | 42 | 1.6 | 1.6 | 0.00 | 0.00 | 0.00 | 38 | 1016.3 |
| 20260903051238 | 18 | 283 | 0.0 | 1.6 | 0.00 | 0.00 | 0.00 | 37 | 1016.2 |
| 20260903050837 | 18 | 333 | 0.0 | 1.6 | 0.00 | 0.00 | 0.00 | 37 | 1016.2 |
| 20260903050435 | 18 | 135 | 0.0 | 1.6 | 0.00 | 0.00 | 0.00 | 37 | 1016.2 |
| 20260903044830 | 19 | 306 | 0.0 | 0.0 | 0.00 | 0.00 | 0.00 | 36 | 1016.2 |
| 20260903044429 | 19 | 315 | 0.0 | 0.0 | 0.00 | 0.00 | 0.00 | 36 | 1016.3 |
| 20260903043228 | 19 | 290 | 0.0 | 1.6 | 0.00 | 0.00 | 0.00 | 36 | 1016.2 |
| 20260903042824 | 19 | 306 | 0.0 | 1.6 | 0.00 | 0.00 | 0.00 | 35 | 1016.2 |
| 20260903042022 | 20 | 315 | 0.0 | 1.6 | 0.00 | 0.00 | 0.00 | 35 | 1016.2 |
| 20260903041619 | 20 | 297 | 0.0 | 1.6 | 0.00 | 0.00 | 0.00 | 35 | 1016.1 |
| 20260903040820 | 20 | 135 | 0.0 | 0.0 | 0.00 | 0.00 | 0.00 | 34 | 1016.2 |
| 20260903035614 | 21 | 283 | 0.0 | 0.0 | 0.00 | 0.00 | 0.00 | 34 | 1016.0 |
| 20260903034811 | 21 | 186 | 0.0 | 0.0 | 0.00 | 0.00 | 0.00 | 34 | 1016.0 |
| 20260903034409 | 21 | 279 | 0.0 | 1.6 | 0.00 | 0.00 | 0.00 | 33 | 1015.9 |
| 20260903034010 | 21 | 279 | 0.0 | 1.6 | 0.00 | 0.00 | 0.00 | 33 | 1015.9 |
| 20260903033608 | 21 | 274 | 1.6 | 1.6 | 0.00 | 0.00 | 0.00 | 33 | 1015.8 |
| 20260903033207 | 21 | 274 | 0.0 | 1.6 | 0.00 | 0.00 | 0.00 | 33 | 1015.8 |
| 20260903032804 | 22 | 270 | 1.6 | 3.2 | 0.00 | 0.00 | 0.00 | 32 | 1015.7 |
| 20260903032403 | 22 | 274 | 1.6 | 3.2 | 0.00 | 0.00 | 0.00 | 32 | 1015.7 |
| 20260903031601 | 22 | 306 | 3.2 | 4.8 | 0.00 | 0.00 | 0.00 | 32 | 1015.6 |
| 20260903031200 | 22 | 274 | 1.6 | 4.8 | 0.00 | 0.00 | 0.00 | 32 | 1015.5 |
| 20260903025554 | 23 | 279 | 1.6 | 6.4 | 0.00 | 0.00 | 0.00 | 31 | 1015.5 |
| 20260903024752 | 23 | 274 | 1.6 | 1.6 | 0.00 | 0.00 | 0.00 | 31 | 1015.5 |
| 20260903024351 | 23 | 306 | 0.0 | 0.0 | 0.00 | 0.00 | 0.00 | 31 | 1015.4 |
| 20260903023949 | 23 | 339 | 0.0 | 1.6 | 0.00 | 0.00 | 0.00 | 30 | 1015.4 |
| 20260903023547 | 23 | 315 | 0.0 | 3.2 | 0.00 | 0.00 | 0.00 | 30 | 1015.3 |
| 20260903023146 | 24 | 285 | 1.6 | 3.2 | 0.00 | 0.00 | 0.00 | 29 | 1015.4 |
| 20260903022745 | 24 | 19 | 0.0 | 1.6 | 0.00 | 0.00 | 0.00 | 29 | 1015.4 |
| 20260903022345 | 24 | 42 | 1.6 | 1.6 | 0.00 | 0.00 | 0.00 | 28 | 1015.3 |
| 20260903021943 | 24 | 38 | 1.6 | 1.6 | 0.00 | 0.00 | 0.00 | 28 | 1015.3 |
| 20260903021541 | 24 | 45 | 1.6 | 3.2 | 0.00 | 0.00 | 0.00 | 28 | 1015.2 |
| 20260903021141 | 25 | 38 | 3.2 | 3.2 | 0.00 | 0.00 | 0.00 | ||
| 20260903020338 | 25 | 83 | 3.2 | 6.4 | 0.00 | 0.00 | 0.00 | 26 | 1015.2 |
| 20260903015937 | 25 | 99 | 4.8 | 6.4 | 0.00 | 0.00 | 0.00 | 26 | 1015.1 |
| 20260903015133 | 26 | 76 | 4.8 | 6.4 | 0.00 | 0.00 | 0.00 | 25 | 1015.2 |
| 20260903014735 | 26 | 55 | 4.8 | 6.4 | 0.00 | 0.00 | 0.00 | 25 | 1015.1 |
| 20260903013930 | 26 | 29 | 1.6 | 6.4 | 0.00 | 0.00 | 0.00 | 24 | 1015.2 |
| 20260903013529 | 26 | 72 | 6.4 | 9.7 | 0.00 | 0.00 | 0.00 | 24 | 1015.1 |
| 20260903013127 | 27 | 65 | 4.8 | 8.0 | 0.00 | 0.00 | 0.00 | 24 | 1015.1 |
| 20260903012725 | 27 | 110 | 4.8 | 6.4 | 0.00 | 0.00 | 0.00 | 23 | 1015.1 |
| 20260903012326 | 27 | 117 | 4.8 | 8.0 | 0.00 | 0.00 | 0.00 | 23 | 1015.1 |
| 20260903011522 | 27 | 101 | 4.8 | 9.7 | 0.00 | 0.00 | 0.00 | 22 | 1015.1 |
| 20260903011121 | 27 | 85 | 8.0 | 11.3 | 0.00 | 0.00 | 0.00 | 22 | 1015.1 |
| 20260903010720 | 28 | 90 | 9.7 | 11.3 | 0.00 | 0.00 | 0.00 | 22 | 1015.2 |
| 20260903010358 | 28 | 139 | 8.0 | 8.0 | 0.00 | 0.00 | 0.00 | 22 | 1015.1 |
| 20260903010318 | 28 | 139 | 8.0 | 8.0 | 0.00 | 0.00 | 0.00 | 22 | 1015.1 |
| 20260903005918 | 28 | 141 | 6.4 | 9.7 | 0.00 | 0.00 | 0.00 | 22 | 1015.1 |
| 20260903005516 | 28 | 157 | 4.8 | 14.5 | 0.00 | 0.00 | 0.00 | 21 | 1015.1 |
| 20260903004312 | 29 | 135 | 6.4 | 11.3 | 0.00 | 0.00 | 0.00 | 21 | 1015.0 |
| 20260903003509 | 29 | 180 | 3.2 | 11.3 | 0.00 | 0.00 | 0.00 | 20 | 1015.1 |
| 20260903003108 | 29 | 177 | 3.2 | 12.9 | 0.00 | 0.00 | 0.00 | 20 | 1015.1 |
| 20260903002707 | 29 | 145 | 4.8 | 12.9 | 0.00 | 0.00 | 0.00 | 20 | 1015.0 |
| 20260903002306 | 30 | 162 | 8.0 | 12.9 | 0.00 | 0.00 | 0.00 | 20 | 1015.0 |
| 20260903001904 | 30 | 180 | 8.0 | 11.3 | 0.00 | 0.00 | 0.00 | 19 | 1015.1 |
| 20260902235459 | 30 | 135 | 12.9 | 0.0 | 0.00 | 0.00 | 0.00 | 19 | 10.1 |
| 20260902235456 | 30 | 135 | 12.9 | 16.1 | 0.00 | 0.00 | 0.00 | 19 | 1015.2 |
| 20260902235057 | 30 | 186 | 11.3 | 11.3 | 0.00 | 0.00 | 0.00 | 19 | 1015.1 |
| 20260902234654 | 29 | 123 | 11.3 | 17.7 | 0.00 | 0.00 | 0.00 | 18 | 1015.2 |
| 20260902233444 | 31 | 135 | 12.9 | 12.9 | 0.00 | 0.00 | 0.00 | 19 | 1015.3 |
| 20260902233043 | 31 | 162 | 4.8 | 16.1 | 0.00 | 0.00 | 0.00 | 19 | 1015.3 |
| 20260902232240 | 31 | 135 | 16.1 | 17.7 | 0.00 | 0.00 | 0.00 | 18 | 1015.3 |
| 20260902231839 | 32 | 112 | 6.4 | 16.1 | 0.00 | 0.00 | 0.00 | 18 | 1015.4 |
| 20260902231438 | 33 | 186 | 8.0 | 12.9 | 0.00 | 0.00 | 0.00 | 18 | 1015.4 |
| 20260902231036 | 32 | 180 | 9.7 | 16.1 | 0.00 | 0.00 | 0.00 | 18 | 1015.4 |
| 20260902230635 | 32 | 139 | 11.3 | 16.1 | 0.00 | 0.00 | 0.00 | 18 | 1015.5 |
| 20260902230233 | 33 | 173 | 11.3 | 14.5 | 0.00 | 0.00 | 0.00 | 18 | 1015.5 |
| 20260902225834 | 33 | 155 | 6.4 | 16.1 | 0.00 | 0.00 | 0.00 | 18 | 1015.5 |
| 20260902225832 | 33 | 155 | 6.4 | 16.1 | 0.00 | 0.00 | 0.00 | 18 | 1015.5 |
| 20260902225431 | 33 | 177 | 9.7 | 14.5 | 0.00 | 0.00 | 0.00 | 17 | 1015.5 |
| 20260902225030 | 33 | 307 | 9.7 | 12.9 | 0.00 | 0.00 | 0.00 | 18 | 1015.5 |
| 20260902224629 | 33 | 200 | 11.3 | 12.9 | 0.00 | 0.00 | 0.00 | 18 | 1015.6 |
| 20260902224228 | 33 | 180 | 11.3 | 14.5 | 0.00 | 0.00 | 0.00 | 17 | 1015.6 |
| 20260902223825 | 33 | 162 | 8.0 | 19.3 | 0.00 | 0.00 | 0.00 | 18 | 1015.6 |
| 20260902223424 | 34 | 200 | 6.4 | 16.1 | 0.00 | 0.00 | 0.00 | 18 | 1015.8 |
| 20260902223025 | 34 | 191 | 14.5 | 16.1 | 0.00 | 0.00 | 0.00 | 18 | 1015.8 |
| 20260902221820 | 33 | 189 | 8.0 | 16.1 | 0.00 | 0.00 | 0.00 | 19 | 1015.9 |
| 20260902221420 | 33 | 108 | 6.4 | 14.5 | 0.00 | 0.00 | 0.00 | 19 | 1016.0 |
| 20260902221017 | 33 | 150 | 8.0 | 16.1 | 0.00 | 0.00 | 0.00 | 19 | 1016.1 |
| 20260902220617 | 33 | 182 | 6.4 | 16.1 | 0.00 | 0.00 | 0.00 | 19 | 1016.1 |
| 20260902220214 | 33 | 155 | 11.3 | 19.3 | 0.00 | 0.00 | 0.00 | 19 | 1016.1 |
| 20260902215815 | 33 | 172 | 14.5 | 14.5 | 0.00 | 0.00 | 0.00 | 19 | 1016.1 |
| 20260902215412 | 34 | 193 | 12.9 | 19.3 | 0.00 | 0.00 | 0.00 | 19 | 1016.2 |
| 20260902215010 | 33 | 301 | 4.8 | 14.5 | 0.00 | 0.00 | 0.00 | 19 | 1016.3 |
| 20260902214609 | 34 | 220 | 6.4 | 16.1 | 0.00 | 0.00 | 0.00 | 19 | 1016.3 |
| 20260902214208 | 33 | 186 | 4.8 | 19.3 | 0.00 | 0.00 | 0.00 | 19 | 1016.3 |
| 20260902213807 | 34 | 185 | 6.4 | 16.1 | 0.00 | 0.00 | 0.00 | 19 | 1016.3 |
| 20260902212602 | 33 | 128 | 4.8 | 17.7 | 0.00 | 0.00 | 0.00 | 19 | 1016.4 |
| 20260902211359 | 35 | 227 | 4.8 | 12.9 | 0.00 | 0.00 | 0.00 | 20 | 1016.5 |
| 20260902210958 | 35 | 192 | 8.0 | 14.5 | 0.00 | 0.00 | 0.00 | 20 | 1016.5 |
| 20260902210155 | 34 | 73 | 1.6 | 14.5 | 0.00 | 0.00 | 0.00 | 20 | 1016.6 |
| 20260902205754 | 35 | 305 | 6.4 | 12.9 | 0.00 | 0.00 | 0.00 | 21 | 1016.6 |
| 20260902205352 | 35 | 279 | 3.2 | 11.3 | 0.00 | 0.00 | 0.00 | 21 | 1016.7 |
| 20260902204550 | 34 | 202 | 0.0 | 6.4 | 0.00 | 0.00 | 0.00 | 21 | 1016.8 |
| 20260902203347 | 33 | 205 | 4.8 | 6.4 | 0.00 | 0.00 | 0.00 | 22 | 1016.8 |